USA 170

Last updated on Thu Jul 03 2025 00:02:44 GMT+0000 (Coordinated Universal Time)

1 27875U 03040A 25183.28933863 .00000127 00000+0 00000+0 0 9995 2 27875 9.7541 51.1749 0001694 37.6379 319.9730 1.00273285 29471
UTC large
Height (km)
Speed (km/s)
/
Latitude / Longitude
Inclination (degrees)
Orbital Period (minutes)
Azimuth
Elevation
Range (km)
Doppler Factor

Next 0 passes for location: London (51.5072 / 0.1276)

Sorry there are no passes over London.